WAT1150 CYXU-MDPC

Flight info

Callsign WAT1150
Flight time N/A
Altitude 33000
Route FOWEL DCT JHW DCT PSB J61 EMI/N0449F340 Q119 SCOOB DCT KEMPR/N0450F330 DCT ECG AR8 OXANA/M078F350 L452 LNHOM/N0457F350 L452 SLUKA/N0461F340 DCT NELSR/N0460F350 DCT POKEG POKEG1W
Aircraft A21N/M-SDE3FGHIRWY/LB1

Departure

Time 2026-04-23 04:57
Airport London International Airport (CYXU)

Arrival

Time N/A
Airport Punta Cana International Airport (MDPC)
Time Latitude Longitude Altitude Speed Heading
2026-04-23 04:35 43.02948 -81.14907 914 ft 0 kts 193°
2026-04-23 04:48 43.02960 -81.14903 917 ft 4 kts 191°
2026-04-23 04:48 43.02977 -81.14899 916 ft 4 kts 187°
2026-04-23 04:48 43.03004 -81.14897 914 ft 4 kts 180°
2026-04-23 04:49 43.03031 -81.14899 916 ft 4 kts 167°
2026-04-23 04:49 43.03055 -81.14912 915 ft 3 kts 142°
2026-04-23 04:49 43.03062 -81.14919 917 ft 0 kts 139°
2026-04-23 04:52 43.03043 -81.14895 916 ft 9 kts 130°
2026-04-23 04:52 43.02999 -81.14826 913 ft 10 kts 133°
2026-04-23 04:53 43.02940 -81.14767 914 ft 11 kts 143°
2026-04-23 04:53 43.02879 -81.14696 914 ft 12 kts 138°
2026-04-23 04:53 43.02815 -81.14619 914 ft 13 kts 138°
2026-04-23 04:53 43.02747 -81.14536 914 ft 13 kts 138°
2026-04-23 04:54 43.02676 -81.14449 914 ft 14 kts 138°
2026-04-23 04:54 43.02599 -81.14360 914 ft 15 kts 140°
2026-04-23 04:54 43.02519 -81.14267 914 ft 15 kts 140°
2026-04-23 04:54 43.02437 -81.14172 914 ft 16 kts 140°
2026-04-23 04:55 43.02351 -81.14072 914 ft 15 kts 140°
2026-04-23 04:55 43.02287 -81.13997 914 ft 12 kts 117°
2026-04-23 04:55 43.02337 -81.13911 913 ft 13 kts 37°
2026-04-23 04:55 43.02413 -81.13844 912 ft 14 kts 357°
2026-04-23 04:56 43.02508 -81.13945 912 ft 38 kts 317°
2026-04-23 04:56 43.02897 -81.14407 914 ft 108 kts 320°
2026-04-23 04:56 43.03608 -81.15244 923 ft 157 kts 320°
2026-04-23 04:56 43.04433 -81.16157 1478 ft 152 kts 321°
2026-04-23 04:57 43.05235 -81.17181 1965 ft 162 kts 319°
2026-04-23 04:57 43.06084 -81.18231 2567 ft 166 kts 319°
2026-04-23 04:57 43.06953 -81.19277 3221 ft 166 kts 319°
2026-04-23 04:57 43.07820 -81.20329 3874 ft 167 kts 319°
2026-04-23 04:58 43.08750 -81.21438 4233 ft 190 kts 319°
2026-04-23 04:58 43.09982 -81.22344 4489 ft 217 kts 348°
2026-04-23 04:58 43.11574 -81.22236 4757 ft 246 kts 16°
2026-04-23 04:58 43.13083 -81.20966 5197 ft 266 kts 44°
2026-04-23 04:59 43.14066 -81.18778 5851 ft 278 kts 70°
2026-04-23 04:59 43.14436 -81.16153 6564 ft 285 kts 87°
2026-04-23 04:59 43.14108 -81.13497 7224 ft 292 kts 112°
2026-04-23 04:59 43.13050 -81.11119 7933 ft 295 kts 127°
2026-04-23 05:00 43.11777 -81.08887 8663 ft 299 kts 128°
2026-04-23 05:00 43.10480 -81.06628 9398 ft 304 kts 128°
2026-04-23 05:00 43.09183 -81.04322 10125 ft 308 kts 127°
2026-04-23 05:00 43.07848 -81.01924 10502 ft 326 kts 127°
2026-04-23 05:01 43.06443 -80.99382 10803 ft 345 kts 127°
2026-04-23 05:01 43.04960 -80.96690 11083 ft 364 kts 127°
2026-04-23 05:01 43.03418 -80.93883 11574 ft 373 kts 126°
2026-04-23 05:01 43.01856 -80.91021 12240 ft 378 kts 126°
2026-04-23 05:02 43.00277 -80.88131 12936 ft 382 kts 126°
2026-04-23 05:02 42.98676 -80.85206 13613 ft 386 kts 126°
2026-04-23 05:02 42.97060 -80.82267 14225 ft 390 kts 126°
2026-04-23 05:02 42.95423 -80.79287 14796 ft 394 kts 126°
2026-04-23 05:03 42.93767 -80.76280 15367 ft 398 kts 126°
2026-04-23 05:03 42.92093 -80.73246 15931 ft 403 kts 125°
2026-04-23 05:03 42.90397 -80.70173 16493 ft 407 kts 125°
2026-04-23 05:03 42.88687 -80.67080 17037 ft 411 kts 125°
2026-04-23 05:04 42.86956 -80.63954 17592 ft 415 kts 125°
2026-04-23 05:04 42.85209 -80.60798 18137 ft 419 kts 125°
2026-04-23 05:04 42.83444 -80.57611 18621 ft 423 kts 125°
2026-04-23 05:04 42.81664 -80.54405 19109 ft 426 kts 125°
2026-04-23 05:05 42.79894 -80.51218 19582 ft 429 kts 125°
2026-04-23 05:05 42.78089 -80.47969 20024 ft 433 kts 125°
2026-04-23 05:05 42.76263 -80.44687 20469 ft 436 kts 125°
2026-04-23 05:05 42.74423 -80.41385 20929 ft 440 kts 125°
2026-04-23 05:06 42.72565 -80.38059 21369 ft 443 kts 125°
2026-04-23 05:06 42.70691 -80.34716 21820 ft 446 kts 125°
2026-04-23 05:06 42.68800 -80.31342 22269 ft 450 kts 125°
2026-04-23 05:06 42.66898 -80.27946 22725 ft 453 kts 125°
2026-04-23 05:07 42.64980 -80.24530 23155 ft 456 kts 125°
2026-04-23 05:07 42.63047 -80.21091 23589 ft 460 kts 125°
2026-04-23 05:07 42.61103 -80.17626 23944 ft 463 kts 124°
2026-04-23 05:07 42.59344 -80.13971 24306 ft 463 kts 116°
2026-04-23 05:08 42.57823 -80.10106 24665 ft 465 kts 115°
2026-04-23 05:08 42.56315 -80.06208 25017 ft 468 kts 115°
2026-04-23 05:08 42.54792 -80.02293 25358 ft 471 kts 115°
2026-04-23 05:08 42.53254 -79.98365 25702 ft 474 kts 115°
2026-04-23 05:09 42.51700 -79.94412 26027 ft 476 kts 115°
2026-04-23 05:09 42.50134 -79.90444 26367 ft 479 kts 115°
2026-04-23 05:09 42.48581 -79.86504 26684 ft 482 kts 115°
2026-04-23 05:09 42.46998 -79.82496 27001 ft 484 kts 115°
2026-04-23 05:10 42.45406 -79.78462 27335 ft 487 kts 115°
2026-04-23 05:10 42.43802 -79.74404 27610 ft 490 kts 115°
2026-04-23 05:10 42.42186 -79.70326 27882 ft 493 kts 114°
2026-04-23 05:10 42.40562 -79.66226 28176 ft 496 kts 114°
2026-04-23 05:11 42.38927 -79.62108 28468 ft 498 kts 114°
2026-04-23 05:11 42.37280 -79.57974 28756 ft 501 kts 114°
2026-04-23 05:11 42.35619 -79.53815 29043 ft 503 kts 115°
2026-04-23 05:11 42.33949 -79.49646 29323 ft 506 kts 114°
2026-04-23 05:12 42.32273 -79.45455 29618 ft 507 kts 114°
2026-04-23 05:12 42.30595 -79.41265 30003 ft 508 kts 114°
2026-04-23 05:12 42.28908 -79.37070 30281 ft 509 kts 114°
2026-04-23 05:12 42.27217 -79.32868 30553 ft 509 kts 114°
2026-04-23 05:13 42.25525 -79.28664 30852 ft 509 kts 114°
2026-04-23 05:13 42.23835 -79.24469 31147 ft 509 kts 114°
2026-04-23 05:13 42.22145 -79.20285 31439 ft 508 kts 114°
2026-04-23 05:14 42.18294 -79.12345 31979 ft 515 kts 130°
2026-04-23 05:14 42.15589 -79.09075 32225 ft 517 kts 143°
2026-04-23 05:14 42.12622 -79.06330 32495 ft 517 kts 146°
2026-04-23 05:14 42.09609 -79.03676 32741 ft 518 kts 146°
2026-04-23 05:15 42.06636 -79.01048 32962 ft 518 kts 146°
2026-04-23 05:15 42.03638 -78.98368 33089 ft 516 kts 146°
2026-04-23 05:15 42.00662 -78.95685 33090 ft 514 kts 146°
2026-04-23 05:16 41.94720 -78.90327 33072 ft 514 kts 146°
2026-04-23 05:16 41.88774 -78.84978 33066 ft 514 kts 146°
2026-04-23 05:17 41.82836 -78.79646 33049 ft 512 kts 146°
2026-04-23 05:17 41.76922 -78.74357 33069 ft 511 kts 146°
2026-04-23 05:18 41.71002 -78.69071 33064 ft 511 kts 146°
2026-04-23 05:18 41.65066 -78.63777 33069 ft 513 kts 146°
2026-04-23 05:19 41.59127 -78.58498 33061 ft 511 kts 146°
2026-04-23 05:19 41.53205 -78.53241 33065 ft 511 kts 146°
2026-04-23 05:20 41.47279 -78.47997 33062 ft 511 kts 146°
2026-04-23 05:20 41.41345 -78.42758 33061 ft 511 kts 146°
2026-04-23 05:21 41.35475 -78.37584 33052 ft 507 kts 146°
2026-04-23 05:21 41.29587 -78.32409 33069 ft 507 kts 146°
2026-04-23 05:22 41.23699 -78.27241 33055 ft 507 kts 146°
2026-04-23 05:22 41.17809 -78.22085 33062 ft 507 kts 147°
2026-04-23 05:23 41.11935 -78.16955 33052 ft 503 kts 147°
2026-04-23 05:23 41.06083 -78.11855 33056 ft 503 kts 147°
2026-04-23 05:24 41.00229 -78.06763 33058 ft 503 kts 147°
2026-04-23 05:24 40.94371 -78.01680 33054 ft 504 kts 147°
2026-04-23 05:25 40.88375 -77.96907 33052 ft 502 kts 151°
2026-04-23 05:25 40.82300 -77.92485 33067 ft 503 kts 152°
2026-04-23 05:26 40.76163 -77.88024 33039 ft 503 kts 152°
2026-04-23 05:26 40.70029 -77.83570 33030 ft 503 kts 152°
2026-04-23 05:27 40.63907 -77.79128 33035 ft 502 kts 151°
2026-04-23 05:27 40.57786 -77.74701 33038 ft 502 kts 152°
2026-04-23 05:28 40.51654 -77.70280 33037 ft 502 kts 152°
2026-04-23 05:28 40.45531 -77.65868 33028 ft 501 kts 151°
2026-04-23 05:29 40.39452 -77.61497 33025 ft 502 kts 152°
2026-04-23 05:29 40.33331 -77.57114 33036 ft 502 kts 152°
2026-04-23 05:30 40.27197 -77.52718 33028 ft 502 kts 152°
2026-04-23 05:30 40.21057 -77.48331 33015 ft 502 kts 152°
2026-04-23 05:31 40.14936 -77.43966 33024 ft 501 kts 152°
2026-04-23 05:31 40.08812 -77.39609 33023 ft 501 kts 152°
2026-04-23 05:32 40.02682 -77.35260 33029 ft 501 kts 152°
2026-04-23 05:32 39.96552 -77.30919 33029 ft 501 kts 152°
2026-04-23 05:33 39.90472 -77.26624 33033 ft 501 kts 152°
2026-04-23 05:33 39.84349 -77.22308 33051 ft 501 kts 152°
2026-04-23 05:34 39.78201 -77.17980 33042 ft 502 kts 152°
2026-04-23 05:34 39.72054 -77.13662 33036 ft 502 kts 152°
2026-04-23 05:35 39.65915 -77.09358 33046 ft 502 kts 152°
2026-04-23 05:35 39.59775 -77.05062 33040 ft 502 kts 152°
2026-04-23 05:36 39.53630 -77.00766 33042 ft 501 kts 152°
2026-04-23 05:36 39.47197 -76.97423 33033 ft 497 kts 171°
2026-04-23 05:37 39.40385 -76.96083 33042 ft 495 kts 175°
2026-04-23 05:37 39.33548 -76.94877 33054 ft 496 kts 174°
2026-04-23 05:38 39.26723 -76.93608 33043 ft 495 kts 174°
2026-04-23 05:38 39.19916 -76.92334 33046 ft 495 kts 174°
2026-04-23 05:39 39.13105 -76.91067 33038 ft 494 kts 174°
2026-04-23 05:39 39.06297 -76.89801 33025 ft 494 kts 174°
2026-04-23 05:40 38.99496 -76.88539 33045 ft 494 kts 174°
2026-04-23 05:40 38.92697 -76.87281 33042 ft 494 kts 174°
2026-04-23 05:41 38.85929 -76.86028 33040 ft 496 kts 174°
2026-04-23 05:41 38.79099 -76.84766 33025 ft 496 kts 174°
2026-04-23 05:42 38.72271 -76.83508 33031 ft 495 kts 174°
2026-04-23 05:42 38.65448 -76.82258 33027 ft 495 kts 174°
2026-04-23 05:43 38.58625 -76.81010 33016 ft 495 kts 174°
2026-04-23 05:43 38.51830 -76.79768 33020 ft 493 kts 174°
2026-04-23 05:44 38.45030 -76.78523 33020 ft 493 kts 174°
2026-04-23 05:44 38.38236 -76.77282 33022 ft 493 kts 174°
2026-04-23 05:45 38.31449 -76.76048 33016 ft 491 kts 174°
2026-04-23 05:45 38.25829 -76.75026 33019 ft 491 kts 174°
2026-04-23 05:46 38.19062 -76.73801 33021 ft 491 kts 174°
2026-04-23 05:46 38.12308 -76.72578 33004 ft 490 kts 174°
2026-04-23 05:47 38.04502 -76.71167 33026 ft 487 kts 174°
2026-04-23 05:47 37.98874 -76.70150 33027 ft 487 kts 174°
2026-04-23 05:48 37.92164 -76.68942 33026 ft 487 kts 174°
2026-04-23 05:48 37.85465 -76.67740 33024 ft 485 kts 174°
2026-04-23 05:49 37.78835 -76.66551 33034 ft 484 kts 174°
2026-04-23 05:49 37.72167 -76.65358 33046 ft 484 kts 174°
2026-04-23 05:50 37.65495 -76.64165 33053 ft 484 kts 174°
2026-04-23 05:50 37.58815 -76.62974 33056 ft 485 kts 174°
2026-04-23 05:51 37.52135 -76.61833 33062 ft 483 kts 174°
2026-04-23 05:51 37.45476 -76.60719 33057 ft 483 kts 174°
2026-04-23 05:52 37.38816 -76.59591 33041 ft 481 kts 174°
2026-04-23 05:52 37.32178 -76.58472 33042 ft 482 kts 174°
2026-04-23 05:53 37.25534 -76.57354 33048 ft 482 kts 174°
2026-04-23 05:53 37.18894 -76.56236 33057 ft 482 kts 174°
2026-04-23 05:54 37.12258 -76.55125 33060 ft 481 kts 174°
2026-04-23 05:54 37.05624 -76.54013 33059 ft 481 kts 174°
2026-04-23 05:55 36.98993 -76.52907 33058 ft 481 kts 174°
2026-04-23 05:55 36.92410 -76.51807 33062 ft 480 kts 174°
2026-04-23 05:56 36.85783 -76.50703 33078 ft 480 kts 174°
2026-04-23 05:56 36.79137 -76.49596 33085 ft 483 kts 174°
2026-04-23 05:57 36.72658 -76.47489 33079 ft 484 kts 155°
2026-04-23 05:57 36.66663 -76.43670 33078 ft 483 kts 152°
2026-04-23 05:58 36.60706 -76.39794 33078 ft 483 kts 152°
2026-04-23 05:58 36.54718 -76.35970 33062 ft 484 kts 153°
2026-04-23 05:59 36.48730 -76.32155 33068 ft 484 kts 153°
2026-04-23 05:59 36.42736 -76.28348 33070 ft 484 kts 152°
2026-04-23 06:00 36.36733 -76.24537 33074 ft 485 kts 152°
2026-04-23 06:00 36.30726 -76.20732 33081 ft 485 kts 152°
2026-04-23 06:01 36.24962 -76.16423 33079 ft 483 kts 137°
2026-04-23 06:01 36.20283 -76.10493 33093 ft 481 kts 130°
2026-04-23 06:02 36.15772 -76.04443 33071 ft 482 kts 130°
2026-04-23 06:02 36.11185 -75.98405 33063 ft 482 kts 131°
2026-04-23 06:03 36.06583 -75.92373 33057 ft 482 kts 131°
2026-04-23 06:03 36.01973 -75.86337 33062 ft 482 kts 131°
2026-04-23 06:04 35.97366 -75.80314 33082 ft 482 kts 131°
2026-04-23 06:04 35.92757 -75.74294 33091 ft 483 kts 131°
2026-04-23 06:05 35.88135 -75.68271 33091 ft 483 kts 131°
2026-04-23 06:05 35.83516 -75.62260 33057 ft 483 kts 131°
2026-04-23 06:06 35.78890 -75.56245 33056 ft 483 kts 131°
2026-04-23 06:06 35.74269 -75.50241 33054 ft 483 kts 131°
2026-04-23 06:07 35.69637 -75.44243 33065 ft 483 kts 131°
2026-04-23 06:07 35.65003 -75.38247 33080 ft 484 kts 131°
2026-04-23 06:08 35.60363 -75.32257 33076 ft 484 kts 131°
2026-04-23 06:08 35.55703 -75.26271 33077 ft 485 kts 131°
2026-04-23 06:09 35.51078 -75.20322 33078 ft 485 kts 131°
2026-04-23 06:09 35.46423 -75.14344 33075 ft 484 kts 131°
2026-04-23 06:10 35.41765 -75.08372 33078 ft 484 kts 131°
2026-04-23 06:10 35.37101 -75.02403 33078 ft 484 kts 131°
2026-04-23 06:11 35.32442 -74.96449 33076 ft 483 kts 131°
2026-04-23 06:11 35.27793 -74.90522 33070 ft 481 kts 131°
2026-04-23 06:12 35.23152 -74.84617 33079 ft 481 kts 131°
2026-04-23 06:12 35.16180 -74.75767 33072 ft 481 kts 131°
2026-04-23 06:13 35.11534 -74.69881 33078 ft 481 kts 131°
2026-04-23 06:13 35.06880 -74.63997 33084 ft 481 kts 131°
2026-04-23 06:14 35.02224 -74.58118 33083 ft 482 kts 131°
2026-04-23 06:14 34.97564 -74.52247 33089 ft 482 kts 131°
2026-04-23 06:15 34.92901 -74.46388 33084 ft 482 kts 131°
2026-04-23 06:15 34.88236 -74.40528 33085 ft 482 kts 131°
2026-04-23 06:16 34.83597 -74.34715 33114 ft 482 kts 132°
2026-04-23 06:16 34.78918 -74.28856 33101 ft 483 kts 132°
2026-04-23 06:17 34.74229 -74.22998 33096 ft 483 kts 132°
2026-04-23 06:17 34.69538 -74.17149 33095 ft 483 kts 132°
2026-04-23 06:18 34.64852 -74.11313 33101 ft 482 kts 132°
2026-04-23 06:18 34.60162 -74.05487 33107 ft 482 kts 132°
2026-04-23 06:19 34.55470 -73.99667 33123 ft 482 kts 133°
2026-04-23 06:19 34.50785 -73.93864 33114 ft 481 kts 133°
2026-04-23 06:20 34.46099 -73.88065 33117 ft 481 kts 133°
2026-04-23 06:20 34.41412 -73.82279 33114 ft 481 kts 133°
2026-04-23 06:21 34.36440 -73.76867 33117 ft 483 kts 147°
2026-04-23 06:21 34.33462 -73.75013 33124 ft 482 kts 160°
2026-04-23 06:21 34.30258 -73.73822 33134 ft 482 kts 166°
2026-04-23 06:22 34.23767 -73.71802 33167 ft 482 kts 166°
2026-04-23 06:22 34.20522 -73.70771 33431 ft 482 kts 166°
2026-04-23 06:22 34.17283 -73.69725 33695 ft 482 kts 166°
2026-04-23 06:23 34.14049 -73.68670 33882 ft 482 kts 166°
2026-04-23 06:23 34.10809 -73.67613 34131 ft 482 kts 166°
2026-04-23 06:23 34.07567 -73.66557 34309 ft 482 kts 166°
2026-04-23 06:23 34.04327 -73.65503 34477 ft 483 kts 166°
2026-04-23 06:24 34.01125 -73.64462 34672 ft 483 kts 166°
2026-04-23 06:24 33.97886 -73.63411 34871 ft 482 kts 166°
2026-04-23 06:24 33.94644 -73.62359 35044 ft 482 kts 166°
2026-04-23 06:24 33.91398 -73.61308 35169 ft 484 kts 166°
2026-04-23 06:25 33.84916 -73.59206 35161 ft 482 kts 166°
2026-04-23 06:25 33.78447 -73.57114 35158 ft 481 kts 167°
2026-04-23 06:26 33.71975 -73.55025 35158 ft 481 kts 167°
2026-04-23 06:26 33.65508 -73.52942 35159 ft 481 kts 167°
2026-04-23 06:27 33.59040 -73.50862 35161 ft 480 kts 167°
2026-04-23 06:27 33.52583 -73.48786 35165 ft 480 kts 167°
2026-04-23 06:28 33.46135 -73.46717 35171 ft 480 kts 167°
2026-04-23 06:28 33.39682 -73.44654 35177 ft 480 kts 167°
2026-04-23 06:29 33.33230 -73.42588 35169 ft 479 kts 167°
2026-04-23 06:29 33.26802 -73.40531 35179 ft 479 kts 167°
2026-04-23 06:30 33.20367 -73.38481 35182 ft 478 kts 167°
2026-04-23 06:30 33.13975 -73.36447 35187 ft 478 kts 167°
2026-04-23 06:31 33.07549 -73.34405 35174 ft 478 kts 167°
2026-04-23 06:31 33.01129 -73.32367 35184 ft 478 kts 167°
2026-04-23 06:32 32.94705 -73.30329 35194 ft 477 kts 167°
2026-04-23 06:32 32.88298 -73.28305 35196 ft 477 kts 168°
2026-04-23 06:33 32.81883 -73.26280 35193 ft 477 kts 168°
2026-04-23 06:33 32.75481 -73.24257 35202 ft 476 kts 168°
2026-04-23 06:34 32.69076 -73.22244 35203 ft 476 kts 168°
2026-04-23 06:34 32.62668 -73.20237 35206 ft 476 kts 168°
2026-04-23 06:35 32.56262 -73.18227 35203 ft 476 kts 168°
2026-04-23 06:35 32.49909 -73.16233 35203 ft 475 kts 169°
2026-04-23 06:36 32.43519 -73.14232 35208 ft 475 kts 169°
2026-04-23 06:36 32.37130 -73.12234 35207 ft 475 kts 169°
2026-04-23 06:37 32.30739 -73.10237 35207 ft 475 kts 169°
2026-04-23 06:37 32.24347 -73.08247 35209 ft 475 kts 169°
2026-04-23 06:38 32.17960 -73.06256 35213 ft 475 kts 169°
2026-04-23 06:38 32.11564 -73.04265 35213 ft 475 kts 169°
2026-04-23 06:39 32.05176 -73.02287 35216 ft 475 kts 169°
2026-04-23 06:39 31.98788 -73.00304 35192 ft 475 kts 169°
2026-04-23 06:40 31.92419 -72.98333 35209 ft 473 kts 169°
2026-04-23 06:40 31.87127 -72.96697 35215 ft 473 kts 169°
2026-04-23 06:41 31.80762 -72.94729 35224 ft 473 kts 169°
2026-04-23 06:41 31.73371 -72.92462 35216 ft 472 kts 169°
2026-04-23 06:42 31.68050 -72.90824 35209 ft 472 kts 170°
2026-04-23 06:42 31.61693 -72.88871 35217 ft 472 kts 170°
2026-04-23 06:43 31.55340 -72.86916 35216 ft 472 kts 170°
2026-04-23 06:43 31.49032 -72.84983 35217 ft 472 kts 170°
2026-04-23 06:44 31.42677 -72.83037 35207 ft 471 kts 170°
2026-04-23 06:44 31.36331 -72.81101 35216 ft 471 kts 170°
2026-04-23 06:45 31.29988 -72.79170 35216 ft 471 kts 170°
2026-04-23 06:45 31.23646 -72.77227 35220 ft 471 kts 170°
2026-04-23 06:46 31.17303 -72.75299 35219 ft 471 kts 170°
2026-04-23 06:46 31.10987 -72.73382 35214 ft 468 kts 170°
2026-04-23 06:47 31.04687 -72.71462 35220 ft 468 kts 170°
2026-04-23 06:47 30.98390 -72.69556 35218 ft 468 kts 170°
2026-04-23 06:48 30.92131 -72.67662 35216 ft 468 kts 171°
2026-04-23 06:48 30.85835 -72.65765 35208 ft 466 kts 171°
2026-04-23 06:49 30.79563 -72.63875 35215 ft 466 kts 171°
2026-04-23 06:49 30.73290 -72.61978 35214 ft 466 kts 171°
2026-04-23 06:50 30.67019 -72.60090 35221 ft 465 kts 172°
2026-04-23 06:50 30.60752 -72.58200 35217 ft 465 kts 171°
2026-04-23 06:51 30.54465 -72.56312 35214 ft 466 kts 172°
2026-04-23 06:51 30.48179 -72.54426 35219 ft 466 kts 172°
2026-04-23 06:52 30.41893 -72.52547 35217 ft 466 kts 172°
2026-04-23 06:52 30.35614 -72.50668 35219 ft 467 kts 172°
2026-04-23 06:53 30.29320 -72.48789 35202 ft 467 kts 172°
2026-04-23 06:53 30.23034 -72.46914 35212 ft 467 kts 172°
2026-04-23 06:54 30.16788 -72.45051 35211 ft 467 kts 172°
2026-04-23 06:54 30.10500 -72.43199 35212 ft 466 kts 173°
2026-04-23 06:55 30.04214 -72.41368 35210 ft 466 kts 173°
2026-04-23 06:55 29.97910 -72.39530 35204 ft 467 kts 173°
2026-04-23 06:56 29.91611 -72.37693 35207 ft 467 kts 173°
2026-04-23 06:56 29.85311 -72.35858 35210 ft 467 kts 173°
2026-04-23 06:57 29.79015 -72.34032 35208 ft 467 kts 173°
2026-04-23 06:57 29.72714 -72.32201 35189 ft 469 kts 173°
2026-04-23 06:58 29.66386 -72.30366 35203 ft 468 kts 174°
2026-04-23 06:58 29.60070 -72.28535 35205 ft 468 kts 173°
2026-04-23 06:59 29.53758 -72.26708 35206 ft 468 kts 173°
2026-04-23 06:59 29.47439 -72.24877 35201 ft 469 kts 174°
2026-04-23 07:00 29.41119 -72.23051 35203 ft 469 kts 174°
2026-04-23 07:00 29.34792 -72.21228 35204 ft 469 kts 174°
2026-04-23 07:01 29.28469 -72.19406 35199 ft 468 kts 174°
2026-04-23 07:01 29.22148 -72.17590 35198 ft 468 kts 174°
2026-04-23 07:02 29.15874 -72.15787 35185 ft 467 kts 174°
2026-04-23 07:02 29.09563 -72.13982 35195 ft 467 kts 174°
2026-04-23 07:03 29.03251 -72.12170 35194 ft 468 kts 174°